This is the latest recevied weather packets stored in our database for station/object W5ITZ. If no packets are shown the sender has not sent any weather packets the latest 10 day(s).
| Time | Temp. | Humidity | Pressure | Rain* | Wind** | Luminosity | Snow |
|---|---|---|---|---|---|---|---|
| 1777563296 | 23.33° C | 85% | 1011.3 hPa | 0 mm | - | 318 W/m² | - |
| 1777562993 | 23.33° C | 87% | 1011.6 hPa | 0 mm | - | 382 W/m² | - |
| 1777562689 | 22.78° C | 88% | 1011.4 hPa | 0 mm | - | 482 W/m² | - |
| 1777562389 | 22.22° C | 88% | 1011.3 hPa | 0 mm | - | 436 W/m² | - |
| 1777562085 | 22.22° C | 89% | 1011.2 hPa | 0 mm | - | 184 W/m² | - |
| 1777561782 | 21.67° C | 89% | 1011.2 hPa | 0 mm | - | 306 W/m² | - |
| 1777561478 | 21.67° C | 89% | 1011 hPa | 0 mm | - | 237 W/m² | - |
| 1777561173 | 21.67° C | 90% | 1011 hPa | 0 mm | - | 338 W/m² | - |
| 1777560868 | 21.67° C | 91% | 1010.7 hPa | 0 mm | - | 233 W/m² | - |
| 1777560566 | 21.11° C | 91% | 1010.9 hPa | 0 mm | - | 300 W/m² | - |
| 1777560264 | 21.11° C | 91% | 1011 hPa | 0 mm | - | 198 W/m² | - |
| 1777559961 | 21.11° C | 91% | 1011.1 hPa | 0 mm | - | 165 W/m² | - |
| 1777559655 | 21.11° C | 91% | 1010.9 hPa | 0 mm | - | 185 W/m² | - |
| 1777559354 | 21.11° C | 92% | 1010.8 hPa | 0 mm | - | 166 W/m² | - |
| 1777559050 | 21.11° C | 92% | 1010.8 hPa | 0 mm | - | 209 W/m² | - |
| 1777558744 | 21.11° C | 92% | 1011.2 hPa | 0 mm | - | 159 W/m² | - |
| 1777558441 | 20.56° C | 92% | 1011.1 hPa | 0 mm | - | 220 W/m² | - |
| 1777558137 | 20.56° C | 92% | 1010.6 hPa | 0 mm | - | 187 W/m² | - |
| 1777557833 | 20.56° C | 92% | 1010.9 hPa | 0 mm | - | 91 W/m² | - |
| 1777557530 | 20.56° C | 93% | 1011 hPa | 0 mm | - | 105 W/m² | - |
| 1777557227 | 20.56° C | 93% | 1011.1 hPa | 0 mm | - | 186 W/m² | - |
| 1777556923 | 20.56° C | 93% | 1011.1 hPa | 0 mm | - | 108 W/m² | - |
| 1777556618 | 20.56° C | 93% | 1010.8 hPa | 0 mm | - | 42 W/m² | - |
| 1777556313 | 20.56° C | 93% | 1011 hPa | 0 mm | - | 69 W/m² | - |
| 1777556010 | 20.56° C | 93% | 1010.9 hPa | 0 mm | - | 45 W/m² | - |
* Rain latest hour (hover to see other rain measurements)
** Current wind speed in m/s (hover to see current wind gust speed)